www.pogodaiklimat.ru

Погода и климат >> Архив погоды >> Россия >> Краснодарский край >> Геленджик


АРХИВ ПОГОДЫ в Геленджике

Время (UTC), дата Ветер
(напр.,м/с)
 
Видим.   Явления Облачность Т
(С)
Тd
(С)
f
(%)
Тe
(С)
Тes
(С)
Комфортность P
(гПа)
Po
(гПа)
Тmin
(С)
Tmax
(С)
R
(мм)
R24
(мм)
S
(см)
03 10.09 СВ 3 10 км 3/3 600 м
[Sc]
+19.6 +9.9 53 +21 +21 комфорт 1015.2 1013.3 +19.6
06 10.09 СВ 3 50 км ясно +24.0 +10.5 43 +25 +29 комфорт 1016.2 1014.3 +19.4
09 10.09 СВ 3 50 км ясно +26.8 +8.4 31 +27 +37 жарко 1016.1 1014.2
12 10.09 СВ 4
{11}
50 км ясно +29.0 +8.1 27 +28 +34 жарко 1015.6 1013.7
15 10.09 СВ 6-10
{13}
50 км ясно +26.6 +7.8 30 +26 +27 жарко 1015.8 1013.9 +29.3
18 10.09 СВ 6-13
{13}
10 км ясно +24.4 +7.2 33 +25 +25 комфорт 1016.0 1014.1
21 10.09 СВ 2
{14}
10 км ясно +22.7 +7.3 37 +24 +24 комфорт 1016.4 1014.5
00 11.09 СВ 4
{11}
10 км ясно +21.2 +8.5 44 +22 +22 комфорт 1016.7 1014.8
03 11.09 СВ 5 10 км ясно +20.2 +8.5 47 +21 +21 комфорт 1017.7 1015.8 +20.1
06 11.09 С 4
{11}
50 км 3/3 1000 м
[Sc]
+22.4 +11.7 51 +25 +27 комфорт 1019.2 1017.3 +19.9
09 11.09 СВ 5
{12}
50 км 3/3 600 м
[Sc]
+26.4 +12.2 41 +28 +32 жарко 1019.6 1017.4
12 11.09 СВ 4
{11}
50 км 3/3 600 м
[Sc]
+29.9 +10.6 30 +30 +34 жарко 1018.9 1017.1
15 11.09 СВ 4-11
{13}
50 км ясно +27.5 +8.1 29 +27 +27 жарко 1018.9 1017.0 +30.6
18 11.09 СВ 4
{14}
10 км ясно +25.2 +7.3 32 +25 +25 комфорт 1019.2 1017.3
21 11.09 СВ 4
{15}
10 км ясно +23.9 +5.7 31 +24 +24 комфорт 1018.7 1016.8
00 12.09 СВ 5
{12}
10 км ясно +22.7 +4.7 31 +23 +23 комфорт 1019.0 1017.1
03 12.09 СВ 5
{10}
50 км ясно +21.7 +5.2 34 +22 +22 комфорт 1019.6 1017.7 +21.6
06 12.09 СВ 5-11
{12}
50 км ясно +24.1 +4.5 28 +24 +26 комфорт 1020.3 1018.4 +21.4
09 12.09 СВ 4-10
{15}
50 км ясно +28.0 +4.8 23 +27 +35 жарко 1019.7 1017.8
12 12.09 СВ 4-10
{12}
50 км ясно +29.6 +1.8 17 +27 +32 жарко 1019.1 1017.2
15 12.09 СВ 5-11
{12}
50 км ясно +27.2 +1.6 19 +25 +26 комфорт 1018.7 1016.8 +30.3
18 12.09 СВ 4-12
{13}
10 км ясно +24.4 +4.1 27 +24 +24 комфорт 1019.5 1017.6
21 12.09 СВ 4 10 км ясно +23.0 +4.5 30 +23 +23 комфорт 1018.0 1016.1
00 13.09 СВ 5-10
{11}
10 км ясно +21.7 +4.3 32 +22 +22 комфорт 1018.0 1016.1
03 13.09 СВ 4
{14}
50 км ясно +21.3 +4.6 33 +22 +22 комфорт 1017.9 1016.0 +21.2
06 13.09 СВ 5 50 км ясно +25.6 +4.1 25 +25 +27 комфорт 1019.1 1017.2
09 13.09 СВ 5 50 км ясно +28.1 +4.2 22 +27 +33 жарко 1018.8 1016.9
12 13.09 С 3
{12}
50 км ясно +29.7 +4.0 19 +28 +34 жарко 1018.4 1016.5
15 13.09 СВ 3 50 км ясно +25.9 +5.3 27 +25 +25 комфорт 1018.1 1016.2 +30.2
18 13.09 СВ 3 10 км ясно +24.1 +3.2 26 +23 +23 комфорт 1018.7 1016.8
21 13.09 С 1 10 км ясно +21.8 +4.0 31 +22 +22 комфорт 1018.3 1016.4
00 14.09 СВ 3 10 км ясно +22.1 +4.3 31 +22 +22 комфорт 1017.8 1015.9
03 14.09 СВ 4 50 км ясно +22.2 +4.1 31 +22 +22 комфорт 1017.7 1015.8 +20.3
06 14.09 СВ 4
{12}
50 км ясно +26.1 +5.1 26 +25 +29 комфорт 1018.2 1016.3
09 14.09 ЮВ 2 50 км ясно +26.2 +17.1 57 +30 +42 душно 1018.1 1016.2
12 14.09 ЮВ 1 50 км 3/1 600 м
[Cu med, cong Ac trans]
+27.2 +17.2 54 +31 +38 душно 1017.7 1015.8
15 14.09 ЮЗ 1 50 км 6/3 600 м
[Cu med, cong Ac trans]
+24.2 +18.1 69 +29 +29 душно 1017.4 1015.5 +29.1
18 14.09 С 2 10 км ясно +22.7 +8.4 40 +24 +24 комфорт 1017.7 1015.8
21 14.09 С 2
{10}
10 км ясно +21.8 +6.8 38 +23 +23 комфорт 1018.0 1016.1
00 15.09 СВ 3 10 км 4/0
[Ci fib]
+20.7 +6.0 38 +22 +22 комфорт 1017.7 1015.8
03 15.09 СВ 1 50 км 6/0
[Cc]
+19.3 +8.6 50 +21 +21 комфорт 1018.3 1016.4 +18.1
06 15.09 СЗ 1 50 км 3/0
[Cc]
+25.2 +5.5 28 +25 +30 комфорт 1019.3 1017.4
09 15.09 З 3 50 км 3/3 600 м
[Cu hum]
+26.2 +9.8 36 +27 +34 жарко 1019.3 1017.4
12 15.09 С 3 20 км 3/3 600 м
[Cu med, cong]
+27.6 +9.9 33 +28 +32 жарко 1018.9 1017.0
15 15.09 С 5 50 км ясно +24.5 +9.5 39 +25 +25 комфорт 1019.4 1017.5 +28.6
18 15.09 С 2
{10}
10 км ясно +20.1 +9.3 50 +22 +22 комфорт 1020.2 1018.3
21 15.09 СВ 3 10 км ясно +20.0 +4.6 36 +21 +21 комфорт 1019.4 1017.5
00 16.09 СВ 2 10 км ясно +18.1 +2.6 35 +19 +19 тепло 1018.6 1016.7
03 16.09 С 2 20 км ясно +18.2 +8.0 51 +19 +19 тепло 1017.6 1015.7 +15.8
06 16.09 СЗ 1 50 км ясно +23.2 +8.7 40 +25 +30 комфорт 1016.7 1014.8 +15.6
09 16.09 З 4 50 км ясно +25.0 +10.7 41 +26 +34 жарко 1015.7 1013.8
12 16.09 З 4 50 км ясно +25.1 +12.9 47 +27 +32 жарко 1014.6 1012.7
15 16.09 З 3 50 км ясно +23.4 +11.3 47 +26 +26 жарко 1013.9 1012.0 +25.7
18 16.09 СВ 2 10 км ясно +18.9 +7.8 48 +20 +20 тепло 1014.3 1012.4
21 16.09 штиль 0 10 км ясно +16.2 +9.7 65 +16 +16 по сезону 1014.3 1012.4
00 17.09 С 2 10 км ясно +14.5 +9.3 71 +14 +14 по сезону 1013.7 1011.8

 

Местоположение метеостанции Геленджик (Краснодарский край, Россия): широта 44.57 долгота 38.08 высота над уровнем моря 15 м.

В архиве по умолчанию представлена погода в Геленджике за последнюю неделю. Архивные данные за месяц целиком и за предыдущие месяцы, начиная с января 2011 года, Вы можете получить, выбрав интересующий диапазон дат из раскрывающегося списка и нажав кнопку "Ввод!".


*Определитесь, кто Вы:
робот инопланетянин человек

Внимание! Время в таблицах - всемирное. Для получения местного времени необходимо прибавить поправку, которая равна 3 ч.

Смотрите также архив погоды в соседних городах и на ближайших метеорологических станциях:

Погода в Новороссийске (Краснодарский край, Россия) (25 км)
Погода в Крымске (Краснодарский край, Россия) (39 км)
Погода в Джубге (Краснодарский край, Россия) (57 км)
Погода в Анапе (Краснодарский край, Россия) (72 км)
Погода в Славянске-на-Кубани (Краснодарский край, Россия) (79 км)
Погода в Горячем Ключе (Краснодарский край, Россия) (81 км)
Погода в Краснодаре (Краснодарский край, Россия) (92 км)
Погода в Туапсе (Краснодарский край, Россия) (95 км)
Погода в Горном (Краснодарский край, Россия) (100 км)
Погода в Темрюке (Краснодарский край, Россия) (100 км)

Пояснения к столбцам:

Ветер - указаны скорость ветра в м/с - средняя за 10 мин, порывы в срок и между сроками (в фигурных скобках) и направление, откуда дует ветер: С - северный, СВ - северо-восточный, В - восточный, ЮВ - юго-восточный, Ю - южный, ЮЗ - юго-западный, З - западный, СЗ - северо-западный.
Видимость - горизонтальная дальность видимости в метрах или километрах. При видимости от 1 до 10 км при отсутствии осадков обычно наблюдается дымка, при ухудшении видимости до 1 км и менее - туман. В сухую погоду видимость может ухудшаться дымом, пылью или мглою.
Явления - указаны атмосферные явления, наблюдавшиеся в срок или в последний час перед сроком; фигурными скобками обозначены явления, наблюдавшиеся между сроками (за 1-3 часа до срока); квадратными скобками обозначены град или гололедные отложения с указанием их диаметра в мм.
Облачность - указаны через наклонную черту общая и нижняя облачность в баллах и высота нижней границы облаков в метрах; квадратными скобками обозначены формы облаков: Ci - перистые, Cs - перисто-слоистые, Cc - перисто-кучевые, Ac - высококучевые, As - высокослоистые, Sc - слоисто-кучевые, Ns - слоисто-дождевые, Cu - кучевые, Cb - кучево-дождевые. Подробнее классификацию облаков см. в Атласе облаков (PDF).
T - Температура воздуха - температура, измеренная на высоте 2 м над землей.
Td - Температура точки росы - температура, при понижении до которой содержащийся в воздухе водяной пар достигнет насыщения.
f - Относительная влажность воздуха - влажноcть воздуха, измеренная на высоте 2 м над землей.
Te - Эффективная температура - температура, которую ощущает одетый по сезону человек в тени. Характеристика душности погоды. При расчете учитывается влияние влажности воздуха и скорости ветра на теплоощущения человека.
Tes - Эффективная температура на солнце - температура, которую ощущает человек, с поправкой на солнечный нагрев. Характеристика знойности погоды. Зависит от высоты солнца над горизонтом, облачности и скорости ветра. Ночью, в пасмурную погоду, а также при ветре 12 м/с и более поправка равна нулю.
P - Атмосферное давление - приведенное к уровню моря атмосферное давление.
Po - Атмосферное давление - измеренное на уровне метеостанции атмосферное давление.
Tmin - Минимальная температура - минимум температуры воздуха на высоте 2 м над землей.
Tmax - Максимальная температура - максимум температуры воздуха на высоте 2 м над землей.
R - Количество осадков - Количество выпавших осадков за период времени, мм. При наведении курсора мыши на число - период времени, за который выпало указанное количество осадков.
R24 - Количество осадков - Количество выпавших осадков за 24 часа, мм.
S - Снежный покров - Высота снежного покрова, см. При наведении курсора мыши на число - состояние снежного покрова и степень покрытия местности в баллах.